Vertical_Velocity
-2 2 1 -3 -0 1 1 0 1 1 1 -0 -1 -2 0 -1 0 1 -1 -0 -1 -0 -1 -1 -1 -0 -0 -1 -0 -1 -1 -2 -1 -1 -1 -0 -0 -1 1 1 -0 -1 1 -1 -3 -1 -3 -0 -4
1 -1 3 -1 1 1 -1 0 1 0 0 1 1 -0 -0 1 0 0 -0 0 -0 -0 0 -0 -1 -0 -0 -0 -0 -1 -1 -2 -1 -1 -1 0 0 -0 0 -0 0 -1 -2 -3 -1 -0 1 -5 1
-1 0 2 -0 2 1 -3 -1 1 1 0 0 0 -0 -0 -0 0 1 -0 -0 -0 -0 0 -0 -1 -1 -1 -1 -0 -0 -0 -1 -1 -1 -1 -0 1 0 -0 -1 -1 0 -1 -1 -0 -2 -1 -1 -3
-2 0 0 0 1 2 -1 -1 -0 0 1 1 -0 1 1 0 0 0 -0 0 0 0 0 -0 -1 -1 -1 -0 -0 -0 -0 -0 -1 -0 -0 -0 0 1 0 0 -0 -0 -0 -0 -0 -1 1 -2 0
-1 1 1 0 1 1 1 0 1 -1 -0 -1 -1 1 1 -0 0 -0 -0 -0 -0 0 -1 -0 -1 -0 -0 -0 -0 -0 -0 -0 0 0 -0 1 1 0 0 -0 0 -1 -2 -2 -2 -1 -2 -1 -2
-1 1 1 2 -3 2 0 -0 -1 -0 1 -0 -1 -1 1 0 1 1 0 -0 -0 -0 -0 -0 -1 -1 -0 0 -0 -1 -0 0 0 -0 -0 0 1 0 0 1 1 0 -1 -1 -1 -1 -0 -1 -2
-1 0 0 0 -1 0 1 1 0 -0 -1 1 -0 -1 1 0 0 0 -1 -1 0 0 0 -0 0 -1 -1 -1 -1 -0 -0 0 0 0 1 -0 0 1 0 -0 -0 1 -1 -0 -1 -1 -3 -2 -2
-1 -0 2 -1 -2 -7 0 1 0 0 2 -2 -1 -1 2 1 1 0 -0 -0 -1 -1 -1 -0 -0 -1 -0 0 0 -0 0 0 0 1 1 0 0 1 1 0 -1 0 1 -1 -1 -1 -0 -1 -1
-1 -1 2 -4 0 -1 1 -1 -0 0 0 0 -1 -0 1 -0 -0 0 1 -0 -0 -0 0 -1 -1 -1 -1 -1 -1 0 0 1 1 0 0 1 -0 0 0 0 -0 -1 0 1 1 1 0 -1 -1
-1 2 -4 2 -0 -0 1 0 0 -1 0 1 -0 -1 0 -0 -1 -1 -0 0 0 -0 -0 -0 -1 -1 0 0 0 1 0 -0 0 0 1 0 -0 1 1 -0 -0 1 -0 0 0 1 -0 -1 0
-1 0 1 0 1 0 1 1 -0 -0 -2 -0 0 -0 1 0 -0 0 -0 -0 0 -0 -1 -1 -1 -1 -1 -1 -0 -0 -0 -1 -1 -0 0 1 1 -0 -0 -0 -0 0 1 0 0 0 -0 1 -0
-1 0 0 1 0 1 0 -0 1 -1 0 1 -1 -1 -0 -0 -1 -1 0 2 2 1 1 -0 -1 -1 0 1 0 0 -1 -1 -0 0 1 1 1 -0 -0 -0 0 1 1 2 1 -0 0 0 -1
-3 -1 0 0 1 1 1 0 0 -0 -0 -0 -0 0 0 0 0 0 0 0 0 0 1 1 0 -0 -1 -0 0 1 -0 -1 -0 -0 0 1 1 1 0 -1 0 0 0 1 2 1 -0 -1 1
-1 -1 -0 -0 1 2 0 0 -0 0 0 0 0 0 0 1 1 0 1 1 0 1 0 0 0 -0 -0 0 0 0 0 -0 0 0 0 -0 0 0 1 1 0 0 0 0 1 1 1 0 -0
-1 -0 -0 1 -1 1 1 0 -0 0 0 0 -1 -1 -0 -0 -1 -0 -1 -0 0 -1 -1 -1 -1 -0 -0 0 0 0 -0 -0 0 0 1 0 -0 1 1 -0 -0 0 0 1 0 1 1 1 1
-1 -0 -2 -2 -0 -1 -1 0 0 -1 -0 -0 0 -0 0 -0 -0 -1 -1 -1 -1 -0 0 -0 -0 0 0 0 0 -1 -0 0 0 1 0 0 -0 -0 0 1 1 0 -1 -1 1 0 1 0 0
-1 -0 -1 0 -0 -1 -2 -0 2 -1 -0 -1 -2 -0 -0 -0 -0 -0 0 0 -0 -0 0 0 -1 -0 -0 -0 -0 -0 0 0 0 -0 0 0 -0 0 1 0 1 2 1 -0 -1 -0 -1 1 0
-1 1 -1 -3 3 -2 -2 0 -1 1 -1 -1 -0 -0 -0 -1 -1 -0 -0 1 1 0 0 -0 -0 -1 -0 -1 0 0 0 0 -0 0 -0 1 1 0 1 1 0 0 1 1 1 1 0 -0 -0
1 -1 -1 -4 -1 -3 -2 1 -3 -0 1 -0 -1 -1 -0 -1 -0 -0 0 0 0 -0 -0 -1 -1 -1 -1 -1 -1 -1 0 -0 0 -0 -0 0 0 0 0 0 0 0 0 0 0 0 0 0 -1
0 -0 1 -2 -1 -3 -1 3 -2 1 -0 -1 -2 -2 -0 0 1 1 0 -0 -0 -1 -1 -1 -0 0 0 -1 -1 -0 -0 -0 -1 -0 0 -0 -0 -0 0 -0 -0 0 0 -1 -1 -1 -1 -2 -2
1 1 -0 -3 1 -1 -1 -1 0 1 1 1 -1 -2 -2 -1 -0 1 -0 -1 -1 -1 -1 -1 -1 -1 -1 -1 -1 -0 -0 -0 -1 -0 1 1 1 -1 -1 0 -0 -0 0 0 -1 -1 -1 -2 -2
-2 6 -1 -1 -3 -4 4 -15 -5 4 1 3 1 -0 -1 -1 0 -0 -1 -1 -1 -1 -1 -1 -2 -1 -2 -2 -2 -1 0 -0 -0 -0 -1 0 -1 0 -0 -1 -1 -1 -0 0 0 0 -0 -0 -1
-1 -1 0 -0 -4 -2 0 -11 9 -1 5 2 -1 -0 -1 -1 0 0 -0 0 -1 -2 -2 -2 -2 -1 -1 -1 -1 -1 -0 -0 0 0 0 0 1 0 -0 -1 -0 1 1 1 1 1 0 -0 1
-1 -1 -0 -1 -3 -10 12 -2 11 -5 8 1 3 1 2 2 1 1 1 0 0 -0 -1 -1 -1 -1 -1 -1 -1 -1 0 0 1 1 0 0 -1 -1 -0 0 -0 -0 0 0 1 1 1 1 0
1 2 -4 -8 -4 -3 0 -8 17 -1 6 0 -1 2 2 0 1 2 1 1 0 0 1 1 0 -0 1 0 -0 -0 -0 1 1 1 0 0 1 1 1 1 0 0 0 1 0 0 1 1 1
1 2 3 -6 -3 -2 1 -8 -1 1 -0 0 -1 0 1 2 0 -1 0 2 0 0 0 1 0 -0 -0 2 -0 -0 -1 -0 -0 1 1 1 1 0 -0 -0 -0 0 1 1 0 0 0 1 2
7 2 2 -10 4 -7 9 2 3 -2 3 1 -0 1 0 -0 -2 -0 1 1 0 -1 -2 -1 -1 -1 -2 -1 1 0 0 1 -0 0 0 0 1 0 0 0 -0 0 0 -0 -1 -0 -0 -1 -1
-2 -0 -2 3 -10 -10 10 -7 -1 2 -2 -2 -3 -2 -2 -0 -1 -0 -2 -0 -1 1 1 -0 -1 -1 -2 -2 0 -0 1 1 1 1 0 1 0 -0 0 -0 -1 -1 -1 -1 -1 -0 -0 -1 -1
-0 1 1 1 -1 -10 -4 8 3 4 0 -5 -5 -3 -1 2 2 0 -1 -1 -1 2 0 1 0 -0 -1 -0 -2 -1 -0 0 2 2 1 0 0 1 1 0 1 0 -0 -1 -1 -2 -2 -3 -2
2 2 2 -2 -2 -5 -2 -5 -1 13 5 4 -0 -0 1 1 -1 -1 -0 -2 -2 0 0 1 3 2 3 1 1 -1 -2 -1 -0 -1 -0 -0 1 1 1 2 1 0 -1 -1 -1 -1 -1 -1 -1
Height
5814 5814 5814 5812 5814 5813 5812 5812 5811 5811 5811 5811 5812 5812 5813 5814 5815 5818 5816 5816 5817 5817 5818 5818 5818 5818 5818 5818 5818 5819 5819 5819 5819 5819 5819 5818 5818 5818 5817 5816 5816 5815 5814 5813 5811 5809 5807 5804 5802
5812 5813 5813 5812 5812 5812 5812 5811 5810 5810 5810 5810 5810 5811 5812 5813 5813 5814 5814 5815 5815 5815 5816 5816 5817 5817 5817 5817 5817 5818 5818 5818 5818 5818 5818 5818 5818 5817 5817 5816 5815 5815 5814 5813 5811 5810 5808 5806 5803
5811 5811 5812 5811 5810 5810 5810 5810 5809 5809 5809 5810 5810 5810 5811 5811 5811 5812 5813 5813 5813 5814 5814 5814 5815 5815 5815 5816 5816 5816 5817 5817 5817 5817 5817 5817 5817 5817 5816 5816 5815 5814 5814 5813 5812 5810 5809 5807 5806
5808 5809 5810 5809 5808 5808 5808 5808 5808 5808 5808 5808 5808 5809 5809 5809 5810 5810 5811 5811 5812 5812 5812 5812 5813 5813 5813 5814 5814 5814 5815 5815 5815 5815 5816 5816 5816 5816 5815 5815 5815 5814 5813 5813 5812 5811 5809 5808 5806
5805 5805 5806 5806 5805 5805 5805 5805 5805 5805 5806 5806 5806 5806 5807 5807 5807 5808 5808 5809 5809 5810 5810 5810 5811 5811 5811 5811 5812 5812 5812 5812 5812 5813 5813 5814 5814 5815 5814 5814 5814 5813 5812 5812 5811 5811 5809 5808 5806
5801 5801 5803 5802 5801 5801 5802 5802 5802 5802 5802 5803 5803 5803 5804 5804 5804 5805 5805 5806 5806 5807 5807 5808 5808 5808 5809 5809 5809 5809 5809 5809 5810 5810 5811 5811 5812 5813 5813 5812 5812 5812 5812 5811 5811 5810 5809 5808 5806
5796 5796 5797 5798 5797 5797 5798 5798 5798 5799 5799 5800 5799 5800 5801 5800 5801 5801 5802 5802 5803 5803 5804 5805 5805 5805 5806 5806 5806 5806 5806 5807 5807 5807 5808 5808 5809 5810 5810 5810 5810 5810 5810 5810 5809 5809 5808 5807 5807
5791 5791 5793 5793 5793 5792 5793 5794 5794 5795 5795 5795 5795 5796 5797 5797 5797 5797 5797 5798 5798 5799 5800 5801 5801 5801 5802 5802 5802 5803 5803 5803 5803 5804 5805 5805 5805 5806 5806 5807 5807 5807 5807 5808 5807 5807 5807 5806 5805
5787 5787 5788 5787 5788 5788 5789 5789 5790 5790 5790 5790 5791 5791 5792 5792 5792 5792 5793 5793 5794 5795 5796 5796 5796 5797 5797 5797 5798 5798 5798 5799 5799 5800 5801 5801 5802 5802 5802 5803 5803 5804 5804 5804 5805 5804 5804 5804 5804
5783 5783 5782 5783 5784 5784 5785 5785 5786 5787 5786 5786 5786 5787 5787 5787 5787 5787 5788 5789 5789 5790 5791 5791 5791 5791 5792 5792 5793 5793 5794 5794 5795 5795 5796 5797 5797 5797 5798 5798 5799 5799 5800 5800 5801 5801 5802 5802 5802
5779 5778 5779 5779 5779 5780 5781 5781 5781 5782 5782 5782 5782 5782 5782 5782 5782 5783 5783 5784 5784 5785 5785 5785 5786 5786 5786 5787 5787 5788 5788 5789 5790 5791 5791 5792 5792 5793 5793 5793 5794 5795 5795 5796 5797 5797 5798 5798 5798
5775 5774 5774 5775 5775 5776 5777 5777 5777 5777 5777 5777 5777 5777 5777 5777 5777 5778 5778 5778 5779 5779 5780 5780 5780 5781 5781 5781 5782 5782 5783 5784 5784 5785 5785 5786 5786 5787 5788 5788 5789 5790 5791 5791 5792 5793 5793 5794 5794
5772 5772 5771 5771 5772 5772 5772 5773 5773 5773 5773 5772 5772 5773 5773 5773 5773 5773 5773 5773 5774 5774 5775 5775 5775 5775 5775 5775 5776 5776 5777 5777 5778 5779 5779 5779 5780 5781 5782 5783 5783 5784 5785 5786 5787 5788 5788 5789 5789
5771 5770 5770 5770 5770 5770 5770 5770 5770 5771 5770 5770 5769 5769 5769 5769 5769 5769 5770 5770 5770 5770 5770 5770 5770 5770 5770 5770 5770 5770 5770 5771 5771 5772 5773 5773 5774 5775 5776 5777 5778 5778 5779 5780 5781 5782 5783 5784 5784
5769 5770 5769 5769 5769 5769 5768 5769 5768 5768 5768 5767 5767 5766 5766 5765 5765 5765 5765 5766 5766 5766 5766 5765 5765 5765 5765 5765 5764 5764 5764 5764 5765 5766 5766 5767 5768 5769 5770 5771 5772 5772 5773 5774 5775 5776 5777 5778 5779
5768 5767 5767 5767 5766 5766 5767 5766 5765 5765 5765 5764 5763 5762 5762 5761 5761 5761 5761 5761 5761 5761 5761 5761 5761 5760 5760 5759 5759 5758 5758 5758 5758 5759 5760 5761 5761 5762 5763 5764 5765 5766 5767 5768 5769 5770 5771 5771 5772
5765 5765 5764 5764 5764 5763 5763 5762 5762 5761 5761 5760 5759 5758 5758 5757 5757 5756 5756 5756 5757 5757 5756 5756 5756 5755 5754 5753 5752 5752 5752 5751 5752 5752 5753 5753 5754 5755 5756 5756 5757 5759 5760 5761 5762 5762 5763 5764 5765
5762 5762 5762 5761 5762 5760 5759 5759 5758 5758 5757 5756 5755 5754 5754 5753 5753 5752 5752 5752 5752 5752 5751 5751 5750 5749 5748 5747 5746 5746 5745 5745 5745 5745 5746 5746 5747 5748 5748 5749 5750 5750 5751 5753 5754 5754 5755 5756 5757
5760 5759 5759 5758 5757 5756 5755 5755 5754 5753 5753 5751 5750 5749 5749 5749 5748 5748 5748 5747 5747 5746 5746 5745 5744 5743 5742 5741 5740 5739 5738 5737 5737 5737 5737 5738 5739 5740 5740 5741 5741 5742 5743 5744 5745 5746 5747 5748 5749
5756 5755 5755 5754 5753 5752 5751 5751 5750 5749 5747 5746 5745 5744 5743 5743 5742 5742 5742 5741 5741 5740 5739 5738 5738 5737 5735 5734 5733 5732 5731 5730 5729 5729 5729 5729 5730 5731 5731 5732 5732 5733 5734 5735 5736 5737 5738 5739 5741
5751 5751 5749 5749 5748 5746 5745 5746 5745 5745 5743 5741 5740 5738 5737 5737 5736 5736 5735 5734 5734 5733 5732 5731 5730 5729 5728 5726 5725 5724 5723 5722 5722 5721 5721 5721 5721 5722 5722 5722 5723 5723 5724 5725 5726 5728 5729 5731 5732
5745 5746 5743 5742 5740 5738 5740 5736 5739 5739 5737 5736 5734 5732 5731 5730 5729 5728 5728 5727 5726 5726 5725 5724 5722 5721 5720 5718 5717 5715 5714 5713 5713 5713 5712 5712 5713 5713 5713 5714 5714 5714 5715 5716 5717 5718 5719 5721 5722
5739 5738 5736 5734 5732 5730 5733 5727 5733 5731 5731 5729 5727 5725 5724 5723 5722 5721 5720 5719 5718 5717 5717 5715 5714 5712 5710 5709 5707 5706 5705 5704 5703 5703 5704 5704 5704 5704 5705 5705 5706 5706 5706 5707 5708 5709 5709 5711 5712
5731 5730 5727 5725 5723 5719 5726 5721 5721 5722 5723 5721 5719 5718 5717 5715 5714 5713 5712 5710 5709 5708 5707 5706 5705 5703 5701 5699 5698 5696 5695 5694 5693 5693 5694 5694 5694 5695 5695 5695 5696 5696 5696 5697 5698 5699 5700 5701 5701
5723 5721 5718 5715 5714 5711 5712 5710 5714 5713 5714 5710 5710 5709 5708 5706 5705 5703 5702 5701 5699 5698 5697 5696 5694 5692 5691 5689 5687 5686 5684 5683 5683 5683 5683 5684 5684 5685 5685 5685 5685 5686 5686 5687 5687 5688 5689 5690 5691
5714 5713 5711 5704 5704 5703 5700 5698 5700 5702 5701 5701 5699 5699 5698 5696 5695 5693 5692 5690 5688 5687 5685 5684 5683 5681 5679 5678 5677 5675 5673 5673 5672 5672 5673 5673 5673 5673 5674 5674 5674 5675 5675 5676 5676 5677 5677 5677 5678
5706 5704 5702 5697 5694 5691 5691 5690 5688 5688 5690 5690 5689 5688 5686 5684 5683 5681 5679 5677 5676 5674 5673 5672 5670 5669 5667 5666 5665 5664 5663 5662 5661 5661 5661 5661 5661 5661 5661 5661 5661 5662 5662 5663 5663 5663 5664 5664 5665
5696 5693 5691 5689 5684 5679 5680 5678 5676 5674 5674 5675 5676 5674 5672 5670 5668 5666 5665 5664 5662 5661 5660 5658 5657 5656 5655 5653 5653 5652 5651 5650 5650 5649 5649 5648 5648 5648 5648 5648 5648 5648 5649 5649 5649 5649 5648 5649 5649
5685 5683 5680 5678 5674 5670 5668 5668 5667 5662 5658 5658 5657 5657 5656 5655 5654 5653 5651 5649 5648 5646 5645 5644 5642 5642 5640 5639 5638 5638 5638 5637 5637 5637 5636 5635 5634 5634 5634 5633 5633 5632 5632 5632 5632 5632 5632 5632 5632
5671 5669 5667 5664 5662 5659 5656 5655 5655 5649 5647 5645 5641 5640 5641 5639 5637 5636 5635 5633 5632 5631 5629 5628 5627 5626 5625 5624 5623 5622 5622 5622 5622 5621 5620 5620 5619 5618 5617 5617 5617 5616 5616 5615 5615 5614 5614 5614 5614